Location: Azalea Creek
(37.1280°N, 119.2623°W)
Time: 09:46:12
(UTC+00:00)

Cosmos 1725 Rocket - Pass Details

Date: 17 February 2020
Orbit: 963 x 990 km, 82.9° (Epoch: 03 April)

Event Time Altitude Azimuth Distance (km) Brightness Sun altitude
Rises 03:06:19 0° 193° (SSW) 3,634 7.2 -18.3°
Reaches altitude 10° 03:08:49 10° 196° (SSW) 2,690 6.5 -18.8°
Maximum altitude 03:14:56 67° 278° (W) 1,042 4.3 -20.0°
Drops below altitude 10° 03:21:05 10° 1° (N) 2,709 6.3 -21.2°
Sets 03:23:38 0° 4° (N) 3,661 7.0 -21.7°
